Presure
145 186 159 87 92 168 129 88 192 148 154 161 186 197 129 122 159 121 128 130 112 137 129 145 145 115 133 156 124 124 119 143 133 118 133 157 112 144 130 106 115 147 126
155 130 135 106 148 118 122 134 140 172 138 162 146 129 155 124 151 117 143 127 147 127 129 130 141 126 126 132 165 109 132 120 89 109 103 103 119 133 103 133 144 141 114
124 167 124 131 132 126 141 124 158 137 164 181 154 191 125 162 175 111 120 123 141 127 138 139 151 137 126 119 139 150 125 111 124 83 97 144 142 149 182 123 131 133 118
107 121 133 135 96 128 116 117 131 175 213 123 215 154 127 222 111 140 118 150 99 136 141 149 127 152 173 126 107 125 138 130 157 133 115 115 84 127 132 123 123 133 149
120 111 152 160 133 168 148 135 126 167 142 220 201 123 167 152 178 217 138 141 153 167 129 158 144 142 145 137 108 147 155 118 114 143 150 143 141 126 137 125 125 131 129
121 124 143 136 138 137 130 146 179 162 165 165 214 172 134 131 158 137 145 138 231 144 171 216 173 201 147 183 138 147 99 118 132 178 166 136 139 131 156 178 123 160 136
130 136 117 130 135 113 175 153 198 129 135 124 190 150 152 202 133 119 136 134 139 136 161 131 125 128 131 138 157 149 184 160 166 164 167 138 126 139 156 150 145 123 126
125 149 130 151 133 134 146 133 184 143 132 167 124 121 131 144 175 141 129 151 135 160 133 142 164 183 157 138 127 148 136 183 181 126 105 148 173 141 136 133 153 158 128
130 156 146 159 126 135 145 136 142 127 141 104 157 157 171 123 130 127 123 127 211 151 166 188 177 236 214 230 122 142 152 111 143 190 148 139 160 155 108 142 145 151 154
143 138 140 141 190 146 131 150 132 135 132 130 150 171 183 160 144 139 163 150 166 117 157 164 165 140 130 148 198 156 113 163 135 143 194 139 125 127 141 148 171 165 160
134 143 144 156 144 110 127 151 158 128 143 129 128 133 162 131 150 141 159 137 124 134 145 153 134 145 146 168 171 142 196 132 113 168 138 143 128 137 131 142 138 146 128
129 130 143 136 132 144 137 123 141 141 135 125 107 134 129 135 161 146 169 124 137 148 165 184 186 176 146 171 174 156 150 198 169 182 150 119 125 132 153 133 135 162 124
131 135 139 133 141 145 126 141 162 134 129 167 132 130 152 172 129 170 142 179 135 170 140 134 135 185 179 138 138 199 150 126 146 191 128 141 137 132 157 129 149 176 161
140 125 134 138 168 127 133 159 143 136 140 147 129 128 125 133 194 126 195 188 140 127 135 132 142 163 194 169 139 144 109 119 142 136 128 184 207 196 201 191 132 142 163
160 133 199 140 160 102 146 147 91 151 142 145 151 152 134 128 114 208 179 190 193 193 199 140 197 133 177 181 121 126 139 139 132 172 168 131 172 211 186 139 201 146 194
172 144 156 135 179 138 207 155 162 128 137 165 171 127 138 129 179 139 184 150 150 132 190 195 141 108 134 118 143 127 126 148 155 154 147 143 181 182 197 169 134 195 171
256 171 301 142 144 145 143 152 167 141 126 145 130 116 123 133 115 142 162 191 192 195 122 129 132 130 165 147 170 175 133 185 165 167 151 185 125 111 114 204 194 178 176
162 144 138 163 309 157 224 142 143 311 154 142 114 130 126 145 133 127 132 125 171 171 193 182 108 189 147 180 181 102 180 177 150 145 123 127 154 194 181 205 170 152 203
139 168 413 152 236 137 147 156 167 133 186 139 185 125 159 155 125 123 143 152 197 164 151 144 145 174 136 171 158 169 173 186 129 180 126 135 175 160 139 179 191 187 152
464 149 143 233 148 152 171 162 269 134 139 142 135 133 142 136 174 203 183 165 148 159 180 193 169 153 153 142 183 123 162 194 135 157 166 144 141 171 167 188 190 159 197
294 142 187 208 134 142 142 135 146 144 139 141 136 146 103 171 204 145 124 178 169 147 158 186 130 153 145 167 168 143 152 183 141 151 148 133 151 162 172 213 156 201 196
149 153 353 264 142 142 143 137 152 144 132 277 331 161 171 206 155 122 168 131 109 198 171 169 162 167 203 124 133 168 165 133 135 170 170 215 171 224 205 156 210 212 206
194 159 201 262 322 327 246 150 150 301 241 355 351 179 351 297 204 126 171 193 162 168 195 130 146 143 233 167 164 130 140 167 182 191 180 181 195 231 176 164 209 218 204
290 301 300 297 297 304 337 316 320 339 133 264 344 255 150 248 157 185 251 234 177 236 273 211 181 119 166 127 225 237 229 252 228 235 194 203 215 187 221 220 222 222 213
271 141 271 279 269 276 279 185 110 289 110 331 316 332 331 328 327 286 211 273 201 283 191 173 127 243 163 183 257 247 248 205 150 153 261 246 238 241 233 227 224 234 220
260 259 257 254 253 265 270 133 276 283 291 292 316 310 134 145 137 190 178 291 273 131 130 205 144 110 196 134 242 173 185 157 260 258 233 238 189 203 187 187 198 203 203
Wind_Speed
30 39 28 10 13 38 30 14 35 30 28 32 35 34 29 28 33 27 30 32 31 32 32 29 27 36 37 32 45 45 41 41 51 21 48 39 10 54 43 15 28 58 60
31 28 27 30 28 22 36 29 32 33 36 33 36 28 31 30 33 29 26 30 30 33 34 35 36 37 39 41 35 27 36 44 23 32 7 21 45 49 11 61 62 63 43
32 41 31 30 30 33 34 38 31 33 35 33 36 37 30 41 37 33 32 34 30 35 34 36 36 37 27 40 40 41 50 36 51 24 25 51 52 27 39 55 62 62 46
35 34 38 37 20 36 45 43 29 42 51 34 48 40 27 42 31 36 31 37 17 34 33 38 39 37 35 42 16 24 46 53 33 49 40 44 38 60 57 61 57 53 62
38 29 45 45 38 42 49 44 35 44 35 47 50 33 34 37 42 45 36 35 39 39 39 39 36 37 41 41 34 43 42 47 42 42 44 29 31 59 63 43 55 66 66
38 38 41 38 39 41 39 37 51 38 39 45 47 46 39 37 42 33 38 36 41 39 36 41 43 44 39 40 45 43 21 23 42 36 35 56 36 62 51 34 57 49 70
49 51 38 45 45 40 51 46 61 36 37 41 47 40 40 48 40 29 40 38 42 36 48 31 40 30 43 42 43 45 43 48 47 42 38 56 60 62 50 61 64 52 62
47 53 46 45 48 45 37 41 56 36 40 42 44 38 44 45 46 44 37 38 43 43 34 37 41 42 42 42 47 44 45 37 52 50 35 46 42 56 66 66 63 60 63
61 54 49 50 50 45 44 44 41 44 44 35 44 50 48 41 41 41 36 39 43 49 40 46 36 41 29 43 44 47 47 43 46 55 43 57 54 55 34 68 64 57 68
58 60 55 52 72 46 50 43 47 45 46 45 44 50 55 50 52 52 53 53 35 35 46 39 38 43 46 49 42 55 50 52 49 48 53 51 57 46 63 64 53 57 58
66 61 59 51 52 28 51 46 44 49 44 46 42 43 54 47 50 47 49 44 43 50 54 48 51 56 43 52 50 48 44 49 51 55 48 51 59 61 58 68 68 71 64
66 68 65 66 63 56 58 46 51 50 44 41 35 47 43 48 54 53 59 43 53 55 44 47 53 47 49 52 55 58 50 52 45 50 50 53 56 62 65 60 67 69 66
71 73 72 69 67 61 56 61 51 53 47 44 48 44 52 52 47 59 56 61 49 57 56 56 54 56 52 53 49 53 44 43 61 58 55 54 59 60 64 61 61 65 73
72 62 70 69 62 49 65 56 60 55 51 51 49 48 45 47 71 45 67 68 54 45 57 54 60 58 63 56 55 53 49 50 57 50 55 65 64 66 62 60 64 67 76
70 68 80 69 66 28 67 62 35 66 52 55 57 54 48 46 36 76 57 68 72 71 69 59 68 50 61 60 50 53 62 63 54 69 73 59 74 69 68 62 62 61 66
72 63 62 70 69 76 79 64 60 49 50 53 59 45 49 47 63 51 61 46 49 46 63 68 57 41 52 52 59 56 56 62 60 61 72 67 74 72 73 65 65 73 67
58 67 61 68 70 74 71 72 72 56 51 55 50 37 44 54 41 55 57 71 67 69 41 44 46 45 65 60 64 68 62 67 64 64 62 76 62 62 64 76 75 74 74
59 59 54 59 74 66 71 58 64 108 63 55 36 54 52 52 53 41 41 41 58 62 66 60 44 68 59 68 68 56 74 74 63 64 55 51 66 80 83 79 76 66 81
51 56 39 58 56 51 57 64 66 56 64 58 59 44 61 62 45 47 58 59 73 63 56 55 64 71 59 73 72 76 74 79 54 74 56 64 88 75 69 84 85 79 64
19 52 50 46 50 54 48 62 48 53 58 58 56 55 60 55 69 76 68 67 65 68 72 74 75 72 72 66 80 64 76 84 62 71 78 67 68 87 82 92 85 74 90
17 48 43 40 51 53 53 50 56 56 56 58 54 62 39 69 84 59 46 65 68 54 67 71 63 61 69 81 80 63 69 81 68 74 74 69 79 84 85 90 72 91 88
49 51 13 33 53 54 54 51 59 56 49 49 55 67 67 77 67 52 65 52 50 85 70 78 76 81 91 57 59 83 77 68 65 90 90 81 93 89 95 77 95 95 94
32 58 36 8 12 4 31 58 60 38 48 42 44 73 53 55 74 51 75 77 71 77 87 49 60 68 91 80 76 69 68 74 86 91 96 95 94 88 86 78 94 99 88
33 33 27 21 15 13 9 15 19 22 53 32 30 37 61 46 64 57 73 79 75 79 83 81 83 63 62 69 85 86 85 87 89 89 97 92 81 89 96 97 96 101 95
24 30 23 22 11 8 5 29 47 19 48 23 29 28 31 35 39 56 56 57 69 64 80 77 62 75 78 76 84 87 86 91 79 78 82 89 90 92 98 97 98 100 98
19 18 16 13 11 5 1 48 4 7 9 13 13 17 54 48 57 52 66 48 51 60 63 79 77 52 72 74 76 83 75 78 77 76 87 90 90 90 85 85 89 91 90
Wind_Direction
275 276 266 269 264 278 278 287 269 274 275 272 264 267 286 307 278 303 295 297 316 290 302 287 290 323 308 303 319 324 338 321 325 334 337 327 345 339 347 295 353 343 357
264 267 253 280 262 261 279 276 277 271 278 277 282 280 275 285 285 301 279 291 281 297 297 300 295 308 308 305 304 353 336 336 299 338 305 355 354 341 324 342 338 341 11
271 275 272 254 250 254 269 271 269 271 271 266 273 269 279 272 264 301 294 290 282 293 289 292 292 296 326 314 303 303 316 351 322 310 292 322 326 329 322 350 342 339 356
266 274 271 266 292 258 268 270 265 284 266 275 274 278 276 271 297 283 291 283 287 286 288 289 294 297 290 300 341 317 304 308 303 319 343 338 309 332 331 341 344 334 332
273 267 272 266 258 272 273 273 284 274 258 260 275 280 258 278 263 278 285 290 285 282 290 288 296 296 293 297 333 307 304 323 325 315 313 326 312 329 325 306 339 336 342
275 270 260 269 259 260 265 259 279 262 258 273 259 273 276 281 280 283 284 286 283 291 286 282 283 279 296 285 299 296 319 314 315 296 291 316 318 322 309 311 337 310 332
267 261 275 273 263 272 272 270 259 258 256 275 274 266 273 278 286 288 293 295 296 293 285 281 287 294 291 292 291 301 287 299 291 296 292 315 320 317 303 313 320 337 338
274 261 266 261 272 262 254 257 266 250 254 272 277 287 279 279 277 284 293 279 301 278 290 289 294 289 294 297 294 304 304 300 284 315 326 303 287 312 320 323 310 306 332
271 262 261 263 270 256 256 253 251 257 264 288 269 276 267 288 288 289 291 297 279 277 278 285 278 284 299 282 304 293 292 310 306 286 292 309 292 301 320 314 315 305 309
260 261 260 259 258 250 258 254 257 257 259 267 262 276 281 266 268 274 277 272 272 278 277 277 286 289 291 295 299 292 307 295 305 305 286 308 316 305 311 308 290 292 297
257 254 255 254 256 258 264 256 263 266 247 268 271 271 266 268 267 283 273 273 288 290 284 279 294 292 283 276 279 296 292 297 308 290 308 306 310 312 316 311 315 313 321
259 262 253 255 260 255 265 279 253 250 259 268 281 265 276 271 281 281 272 282 281 272 276 282 284 280 288 274 281 288 295 287 293 291 303 306 311 310 293 314 314 292 320
260 255 256 264 258 252 283 262 253 261 269 264 267 266 268 278 282 270 273 278 283 270 280 288 294 282 285 295 294 284 290 301 300 287 306 308 306 307 300 310 306 283 292
251 270 261 260 242 274 272 247 266 266 262 261 270 271 275 272 261 287 263 271 284 285 279 286 282 282 286 275 298 286 303 296 305 301 300 292 287 291 288 287 309 307 289
252 257 253 257 247 253 260 258 268 263 264 264 263 262 271 275 282 258 275 271 270 273 271 279 280 291 285 286 297 299 301 303 302 289 290 302 294 284 293 305 288 304 291
249 262 250 258 243 265 244 255 246 263 265 258 264 277 272 280 273 278 269 273 276 279 272 272 285 295 292 297 291 301 302 294 296 296 301 301 292 292 290 292 304 289 297
254 250 246 257 258 258 262 256 253 263 277 263 272 277 283 281 282 282 276 270 268 271 281 287 292 292 281 288 284 283 297 285 292 288 293 288 298 300 300 285 290 293 291
253 259 264 261 233 255 244 263 264 240 261 267 267 272 277 273 285 285 284 279 267 272 269 270 292 274 284 278 280 292 285 284 295 289 301 303 305 286 296 281 294 306 286
263 251 219 256 242 266 265 258 248 268 256 267 249 278 265 270 278 282 283 281 270 275 277 281 285 280 295 278 290 286 285 281 303 284 302 296 293 297 298 300 291 290 307
170 249 254 239 255 252 260 252 253 268 267 267 272 280 275 282 267 261 264 267 281 279 273 272 270 285 288 281 277 284 286 277 300 291 295 300 298 294 298 293 291 306 293
188 255 245 249 265 258 260 274 257 261 270 272 280 272 279 260 257 280 276 258 268 280 272 269 273 281 286 281 280 295 297 277 292 298 297 296 300 301 292 273 297 287 292
260 257 148 237 260 263 264 269 257 264 273 251 240 270 257 253 273 269 270 281 273 262 269 270 282 280 272 295 296 289 293 295 297 295 297 272 297 264 279 295 280 280 287
257 256 253 231 100 126 252 259 259 243 255 236 238 248 240 251 257 280 265 267 276 271 265 294 281 286 269 279 284 293 292 284 286 283 291 292 285 263 291 291 284 274 290
95 93 96 106 93 53 316 227 223 228 269 257 240 260 270 255 267 268 255 256 265 262 257 267 272 288 276 291 273 270 272 268 274 275 285 280 274 288 273 273 273 271 280
107 275 109 100 130 103 247 266 274 242 276 222 228 230 232 235 238 245 266 254 266 252 267 277 290 264 287 283 262 266 268 280 292 295 261 264 266 261 266 269 272 271 275
125 125 136 160 196 132 101 266 239 221 216 213 215 216 276 277 278 272 270 248 254 286 285 266 287 282 277 293 271 287 281 292 267 259 268 266 285 282 289 291 288 286 287